Andalusia, AL

10:17 AM CST on November 21, 2017 (GMT -0600)
Andalusia

Weather History for K79J - July, 2014

Change the Weather History Date:

Tuesday, July 15, 2014

  Actual Average (KCEW) Record (KCEW)
Temperature  
Mean Temperature 86 °F -  
Max Temperature 96 °F 93 °F 101 °F (1980)
Min Temperature 75 °F 71 °F 63 °F (1990)
Cooling Degree Days 20    
Growing Degree Days 36 (Base 50)    
Moisture  
Dew Point 72 °F    
Average Humidity 75    
Maximum Humidity 89    
Minimum Humidity 43    
Precipitation  
Precipitation 1.04 in - - ()
Sea Level Pressure  
Sea Level Pressure 29.92 in    
Wind  
Wind Speed 4 mph (WNW)    
Max Wind Speed 14 mph    
Max Gust Speed 22 mph    
Visibility 9 miles    
Events Rain , Thunderstorm    
Averages and records for this station are not official NWS values.
T = Trace of Precipitation, MM = Missing Value Source: NWS Daily Summary

Daily Weather History Graph

Daily Weather History Graph

Search for Another Location

Airport or City:

Trip Planner

Search our weather history database for the weather conditions in past years. The results will help you decide how hot, cold, wet, or windy it might be!

Date:

Astronomy

Jul. 15, 2014 Rise Set
Actual Time 5:51 AM CDT 7:51 PM CDT
Civil Twilight 5:24 AM CDT 8:18 PM CDT
Nautical Twilight 4:51 AM CDT 8:51 PM CDT
Astronomical Twilight 4:15 AM CDT 9:26 PM CDT
Moon 10:18 PM CDT (7/15) 9:28 AM CDT (7/15)
Length of Visible Light 14h 53m
Length of Day
13h 59m
Waning Gibbous, 85% of the Moon is Illuminated
Jul 15
Waning Gibbous
Jul 18
Last Quarter
Jul 26
New
Aug 3
First Quarter
Aug 10
Full

Hourly Weather History & Observations

Time (CDT) Temp. Heat Index Dew Point Humidity Pressure Visibility Wind Dir Wind Speed Gust Speed Precip Events Conditions
12:56 AM 80.1 °F 84.2 °F 73.0 °F 79% 29.97 in 10.0 mi SW 3.5 mph - N/A   Clear
1:56 AM 79.0 °F - 73.0 °F 82% 29.95 in 10.0 mi Calm Calm - N/A   Clear
2:56 AM 78.1 °F - 73.0 °F 84% 29.96 in 10.0 mi Calm Calm - N/A   Clear
3:56 AM 78.1 °F - 73.0 °F 84% 29.96 in 10.0 mi Calm Calm - N/A   Partly Cloudy
4:56 AM 78.1 °F - 73.0 °F 84% 29.94 in 10.0 mi West 3.5 mph - N/A   Clear
5:56 AM 78.1 °F - 73.0 °F 84% 29.94 in 10.0 mi Calm Calm - N/A   Clear
6:56 AM 79.0 °F - 73.0 °F 82% 29.94 in 10.0 mi Calm Calm - N/A   Clear
7:25 AM 80.6 °F 85.4 °F 73.4 °F 79% 29.96 in 10.0 mi WSW 4.6 mph - N/A   Scattered Clouds
7:56 AM 82.9 °F 90.2 °F 75.0 °F 77% 29.96 in 10.0 mi West 5.8 mph - N/A   Scattered Clouds
8:21 AM 82.4 °F 89.5 °F 75.2 °F 79% 29.97 in 10.0 mi West 4.6 mph - N/A   Mostly Cloudy
8:56 AM 84.9 °F 93.3 °F 75.0 °F 72% 29.96 in 10.0 mi NW 11.5 mph - N/A   Overcast
9:27 AM 87.8 °F 97.6 °F 75.2 °F 66% 29.95 in 10.0 mi WNW 8.1 mph - N/A   Mostly Cloudy
9:56 AM 89.1 °F 98.0 °F 73.9 °F 61% 29.93 in 10.0 mi WNW 8.1 mph - N/A   Mostly Cloudy
10:35 AM 87.8 °F 95.6 °F 73.4 °F 62% 29.94 in 10.0 mi WNW 6.9 mph - N/A   Scattered Clouds
10:56 AM 91.9 °F 101.3 °F 73.9 °F 55% 29.91 in 10.0 mi WNW 9.2 mph - N/A   Mostly Cloudy
11:56 AM 91.9 °F 99.5 °F 72.0 °F 52% 29.89 in 10.0 mi NW 12.7 mph - N/A   Scattered Clouds
12:56 PM 95.0 °F 102.5 °F 71.1 °F 46% 29.88 in 10.0 mi WNW 13.8 mph 21.9 mph N/A   Mostly Cloudy
1:56 PM 93.9 °F 100.8 °F 71.1 °F 47% 29.89 in 10.0 mi NW 11.5 mph - N/A   Mostly Cloudy
2:56 PM 96.1 °F 102.9 °F 70.0 °F 43% 29.86 in 10.0 mi West 8.1 mph - N/A   Partly Cloudy
3:56 PM 86.0 °F 91.5 °F 71.1 °F 61% 29.87 in 10.0 mi East 10.4 mph 21.9 mph N/A   Mostly Cloudy
4:03 PM 86.0 °F 91.8 °F 71.6 °F 62% 29.89 in 10.0 mi East 5.8 mph 16.1 mph N/A Thunderstorm Thunderstorm
4:32 PM 80.6 °F 84.6 °F 71.6 °F 74% 29.95 in 2.0 mi North 10.4 mph 16.1 mph 0.37 in Rain , Thunderstorm Heavy Thunderstorms and Rain
4:34 PM 78.8 °F - 71.6 °F 78% 29.95 in 1.2 mi Variable 3.5 mph 16.1 mph 0.56 in Rain , Thunderstorm Heavy Thunderstorms and Rain
4:37 PM 78.8 °F - 71.6 °F 78% 29.95 in 0.8 mi SSW 3.5 mph 16.1 mph 0.76 in Rain , Thunderstorm Heavy Thunderstorms and Rain
4:44 PM 77.0 °F - 71.6 °F 83% 29.93 in 1.2 mi ESE 5.8 mph - 0.94 in Rain , Thunderstorm Heavy Thunderstorms and Rain
4:46 PM 77.0 °F - 73.4 °F 89% 29.94 in 2.0 mi Variable 4.6 mph - 0.95 in Rain , Thunderstorm Heavy Thunderstorms and Rain
4:51 PM 77.0 °F - 73.4 °F 89% 29.94 in 5.0 mi Variable 4.6 mph - 0.96 in Rain , Thunderstorm Thunderstorms and Rain
4:56 PM 77.0 °F - 73.0 °F 88% 29.93 in 10.0 mi Calm Calm - 0.96 in Rain , Thunderstorm Light Thunderstorms and Rain
5:27 PM 75.2 °F - 69.8 °F 83% 29.90 in 10.0 mi West 3.5 mph - 0.07 in Rain , Thunderstorm Light Thunderstorms and Rain
5:56 PM 75.0 °F - 69.1 °F 82% 29.87 in 10.0 mi West 4.6 mph - 0.08 in   Partly Cloudy
6:56 PM 75.0 °F - 69.1 °F 82% 29.87 in 10.0 mi Calm Calm - N/A   Clear
7:56 PM 75.0 °F - 69.1 °F 82% 29.89 in 10.0 mi Calm Calm - N/A   Clear
8:56 PM 75.0 °F - 69.1 °F 82% 29.90 in 10.0 mi Calm Calm - 0.00 in   Clear
9:56 PM 75.0 °F - 70.0 °F 84% 29.91 in 10.0 mi Calm Calm - N/A   Partly Cloudy
10:56 PM 75.9 °F - 71.1 °F 85% 29.91 in 10.0 mi WNW 3.5 mph - N/A   Overcast
11:56 PM 75.9 °F - 71.1 °F 85% 29.90 in 10.0 mi Calm Calm - N/A   Partly Cloudy